Погода в Чекунде

Россия / Хабаровский край     50°52′00″N   132°15′23″E
темп.,
°C
ветер,
м/с
пор.,
м/с
влажн.,
%
обл.,
%
осадки,
мм/ч
давл.,
гПа
погр.,
м
23 апреля, пт
пт2301:00+11ю3556100 0.0 101772
04:00+9юз2260100 0.0 101922
07:00+9ююз1167100 0.0 102027
10:00+9сз1188100 2.3 1021188
13:00+12зсз565779 0.8 10211399
16:00+11сз5643100 0.8 10221556
19:00+8ссз4628100 0.0 10231338
22:00+4сз3835100 0.0 1025743
24 апреля, сб
сб2401:00+1зсз264818 0.0 1026252
04:00−3з22590 0.0 102735
07:00−2з23570 0.0 1027134
10:00+4сз483014 0.0 10251872
13:00+7зсз71125100 0.0 10213391
16:00+6сз61323100 0.0 10193697
19:00+5ссз617335 0.0 10193201
22:00+1зсз3663100 0.1 1019543
25 апреля, вс
вс2501:00−1зсз277669 0.4 1019223
04:00−4зсз11640 0.4 102013
07:00−3з11530 0.0 102256
10:00+3с47220 0.0 10222220
13:00+6ссз36160 0.0 10212679
16:00+8сз57170 0.0 10182577
19:00+7сз46220 0.0 10181899
22:000юз22405 0.0 102016
26 апреля, пн
пн2601:00−1юз22465 0.0 101935
04:00−2юз22475 0.0 101834
07:00−1юз234368 0.0 101875
10:00+8зюз252633 0.0 1015735
13:00+13зюз4525100 0.0 10111854
16:00+14юз452599 0.0 10091942
19:00+13ююз2528100 0.0 1007264
22:00+7ююв2243100 0.0 100838
27 апреля, вт
вт2701:00+6ю2249100 0.0 100744
04:00+6ю2247100 0.0 100548
07:00+6ю124898 0.0 100450
10:00+11ю31037100 0.0 10021171
13:00+10ю2649100 0.1 1002462
16:00+9ююв2865100 0.5 1002782
19:00+7св1188100 0.9 100137
22:00+6ссз0196100 2.9 99923